Regional Weather Roundup
Issued by NWS

Home | Current Version | Previous Version | Text Only | Print | Product List | Glossary Off
Versions: 1 2 3 4 5 6 7 8 9 10 11 12 13 14 15 16 17 18 19 20 21 22 23 24 25 26 27

000
ASUS45 KSLC 211210
RWRUT

UTAH REGIONAL WEATHER ROUNDUP
NATIONAL WEATHER SERVICE SALT LAKE CITY UT
500 AM MST TUE NOV 21 2017

UTZ001>011-023>025-211300-

NORTHERN UTAH

CITY           SKY/WX    TMP DP  RH WIND       PRES   REMARKS
BRIGHAM CITY   CLOUDY    42  36  80 CALM      30.25S
DUGWAY         MOCLDY    40  35  81 S3        30.23
6HR MIN TEMP:  35; 6HR MAX TEMP:  41;

HILL AFB       CLOUDY    45  33  63 CALM      30.23S
LOGAN          LGT RAIN  41  37  86 SE7       30.24R
OGDEN          CLOUDY    43  36  76 CALM      30.23R
SALT LAKE CITY MOCLDY    45  38  76 CALM      30.24R
TOOELE VALLEY  MOCLDY    39  36  87 CALM      30.25R
WENDOVER       CLOUDY    39  29  67 NE10      30.24  WCI  32
HEBER CITY     MIX PCPN  39  34  81 CALM      30.25S
WEST JORDAN    CLOUDY    42  38  87 CALM      30.25R

$$

UTZ011>015-024>027-211300-

CENTRAL/NORTHEAST UTAH

CITY           SKY/WX    TMP DP  RH WIND       PRES   REMARKS
PROVO AIRPORT  CLOUDY    41  37  86 CALM      30.25S
MOAB/CANYONLAN MOCLDY    28  10  46 CALM      30.26R
DELTA          MOCLDY    34  23  64 NE3       30.27R
PRICE          PTCLDY    29  11  47 CALM      30.24S
ROOSEVELT      CLOUDY    30  16  55 W5        30.24R WCI  25
VERNAL         CLOUDY    33  19  56 NW3       30.21R

$$

UTZ013>016-019>022-027-211300-

SOUTHERN UTAH

CITY           SKY/WX    TMP DP  RH WIND       PRES   REMARKS
BRYCE CANYON   PTCLDY    30  10  43 CALM      30.34R
CEDAR CITY     PTCLDY    33  18  53 CALM      30.25F
MILFORD        MOCLDY    34  14  43 W9        30.26R WCI  27
ST GEORGE      PTSUNNY   41  10  28 S3        30.25R
HANKSVILLE     MOCLDY    27   9  46 CALM      30.31R
BLANDING         N/A     40  10  28 S3        30.31S

$$

REGIONAL REPORTS     COLORADO/ARIZONA

CITY           SKY/WX    TMP DP  RH WIND       PRES   REMARKS
CRAIG, CO      CLOUDY    37  30  75 NE6       30.20R WCI  32
GRAND JUNCTION CLOUDY    35  20  54 E3        30.28R
RIFLE, CO      CLOUDY    33  29  85 E5        30.31R WCI  29
MONTROSE, CO   CLOUDY    33  26  75 CALM      30.30S
CORTEZ, CO     CLOUDY    29  14  53 NE8       30.24S WCI  21
COLORADO CITY    N/A     32   9  37 CALM      30.28F
PAGE, AZ       PTCLDY    39  14  36 CALM      30.26R
GRAND CANYON   HAZE      27   4  37 NE6       30.30R VSB 3/4 WCI  20
KINGMAN, AZ    MOCLDY    45  14  28 E6        30.18S
FLAGSTAFF, AZ  PTCLDY    27   8  44 CALM      30.29R

$$

REGIONAL REPORTS    NEVADA/IDAHO/WYOMING

CITY           SKY/WX    TMP DP  RH WIND       PRES   REMARKS
LAS VEGAS, NV  MOCLDY    51  15  23 CALM      30.17S
ELY, NY        CLOUDY    44  25  47 S8        30.32R
ELKO, NV       CLOUDY    45  39  79 NE5       30.26R
POCATELLO, ID  CLOUDY    42  40  92 SW8       30.20R
BURLEY, ID     CLOUDY    48  44  86 SW12      30.20R
FORT BRIDGER,  CLOUDY    39  38  94 SW18G28   30.25S WCI  30
EVANSTON, WY   CLOUDY    38  35  89 W18       30.25S WCI  28
ROCK SPRINGS,  PTCLDY    36  32  85 SW12      30.19R WCI  28
KEMMERER, WY   CLOUDY    34  34 100 W22G29    30.20R WCI  22

$$




USA.gov is the U.S. government's official web portal to all federal, state and local government web resources and services.